Weather History for KTVL - March, 2014

Change the Weather History Date:

Saturday, March 8, 2014

  Actual Average Record
Temperature  
Mean Temperature 42 °F 34 °F  
Max Temperature 60 °F 47 °F 63 °F (1988)
Min Temperature 23 °F 21 °F -6 °F (1969)
Degree Days  
Heating Degree Days 23 31  
Month to date heating degree days 203 251  
Since 1 July heating degree days 4818 5488  
Cooling Degree Days 0 0  
Month to date cooling degree days 0 0  
Year to date cooling degree days 0 0  
Moisture  
Dew Point 23 °F    
Average Humidity 53    
Maximum Humidity 81    
Minimum Humidity 24    
Precipitation  
Precipitation 0.00 in - 3.77 in (1986)
Month to date precipitation 0.66  
Year to date precipitation 8.90  
Sea Level Pressure  
Sea Level Pressure 30.25 in    
Wind  
Wind Speed 3 mph (SE)    
Max Wind Speed 13 mph    
Max Gust Speed 15 mph    
Visibility 10 miles    
Events      
T = Trace of Precipitation, MM = Missing Value Source: NWS Daily Summary

Daily Weather History Graph

Daily Weather History Graph

Search for Another Location

Airport or City:

Trip Planner

Search our weather history database for the weather conditions in past years. The results will help you decide how hot, cold, wet, or windy it might be!

Date:

Astronomy

Mar. 08, 2014 Rise Set
Actual Time 6:21 AM PST 6:00 PM PST
Civil Twilight 5:55 AM PST 6:26 PM PST
Nautical Twilight 5:24 AM PST 6:57 PM PST
Astronomical Twilight 4:53 AM PST 7:28 PM PST
Moon 11:10 AM PST (3/8) 12:58 AM PST (3/8)
Length of Visible Light 12h 31m
Length of Day
11h 38m
First Quarter, 53% of the Moon is Illuminated
Mar 8
First Quarter
Mar 16
Full
Mar 23
Last Quarter
Mar 30
New
Apr 7
First Quarter

Hourly Weather History & Observations

Time (PST) Temp. Windchill Dew Point Humidity Pressure Visibility Wind Dir Wind Speed Gust Speed Precip Events Conditions
12:53 AM 28.0 °F - 19.9 °F 72% 30.25 in 10.0 mi Calm Calm - N/A   Clear
1:53 AM 27.0 °F 23.0 °F 19.9 °F 75% 30.25 in 10.0 mi SSW 3.5 mph - N/A   Clear
2:53 AM 26.1 °F 21.9 °F 19.9 °F 78% 30.24 in 10.0 mi SSW 3.5 mph - N/A   Clear
3:53 AM 25.0 °F 20.7 °F 19.0 °F 78% 30.25 in 10.0 mi SSW 3.5 mph - N/A   Clear
4:53 AM 25.0 °F 19.3 °F 19.0 °F 78% 30.26 in 10.0 mi SSW 4.6 mph - N/A   Clear
5:53 AM 23.0 °F 18.4 °F 18.0 °F 81% 30.29 in 10.0 mi South 3.5 mph - N/A   Clear
6:53 AM 23.0 °F 17.0 °F 17.1 °F 78% 30.31 in 10.0 mi South 4.6 mph - N/A   Clear
7:53 AM 28.9 °F - 19.9 °F 69% 30.30 in 10.0 mi Calm Calm - N/A   Clear
8:53 AM 39.0 °F - 17.1 °F 41% 30.26 in 10.0 mi Calm Calm - N/A   Clear
9:53 AM 45.0 °F 41.8 °F 21.9 °F 40% 30.26 in 10.0 mi NE 5.8 mph - N/A   Clear
10:53 AM 50.0 °F - 21.9 °F 33% 30.25 in 10.0 mi NE 4.6 mph - N/A   Clear
11:53 AM 54.0 °F - 23.0 °F 30% 30.23 in 10.0 mi NNE 6.9 mph - N/A   Clear
12:53 PM 57.0 °F - 23.0 °F 27% 30.19 in 10.0 mi NE 6.9 mph - N/A   Clear
1:53 PM 57.0 °F - 21.9 °F 26% 30.19 in 10.0 mi NNE 6.9 mph - N/A   Clear
2:53 PM 55.0 °F - 21.9 °F 28% 30.19 in 10.0 mi NNE 5.8 mph - N/A   Clear
3:53 PM 57.0 °F - 21.9 °F 26% 30.19 in 10.0 mi NE 4.6 mph - N/A   Clear
4:53 PM 55.9 °F - 28.9 °F 36% 30.20 in 10.0 mi SSW 8.1 mph - N/A   Clear
5:53 PM 52.0 °F - 33.1 °F 49% 30.24 in 10.0 mi South 9.2 mph - N/A   Clear
6:53 PM 48.0 °F - 33.1 °F 56% 30.27 in 10.0 mi Calm Calm - N/A   Clear
7:53 PM 42.1 °F - 30.0 °F 62% 30.30 in 10.0 mi Calm Calm - N/A   Clear
8:53 PM 41.0 °F - 28.9 °F 62% 30.29 in 10.0 mi Calm Calm - N/A   Clear
9:53 PM 39.0 °F - 28.0 °F 65% 30.28 in 10.0 mi Calm Calm - N/A   Clear
10:53 PM 37.0 °F - 26.1 °F 65% 30.26 in 10.0 mi Calm Calm - N/A   Clear
11:53 PM 37.0 °F - 25.0 °F 62% 30.24 in 10.0 mi Calm Calm - N/A   Clear